THOR ABLESTAR DEB, 5716

Orbit data source: Space-Track

THOR ABLESTAR DEB, 5716 is space debris in LEO originally from a launch on Thu, 29 Jun 1961 UTC launched from the Air Force Eastern Test Range (AFETR). Debris objects in space refer to the collection of defunct objects orbiting the Earth. Examples of debris include non-operational satellites, rocket bodies, and fragments generated from explosions, collisions, or faulty payload assembly.

Loading next visibility...
Identifier
5716, 1961-015JT
Orbit
LEO
Country
Flag of USUS
Related business
Manufacturer
Unknown
Mission
Spacecraft
Bus & Motor
Unknown
Mass
Unknown
Launch date (UTC)
1961-06-29 (64 years ago)
Launch vehicle
Unknown
Launch site
Air Force Eastern Test Range (AFETR)
Object type
Payload
Rocket body
Debris
Shape & HBR
Unknown shape, 0.1 m
Radar Cross Section
Small (<0.1 m²)

Expand to show TLE details & history
Last TLE update: 11 hours ago

TLE from 11 hours ago
0 THOR ABLESTAR DEB
1 05716U 61015JT  25345.20385015  .00005301  00000-0  97311-3 0  9998
2 05716  66.6961  53.1336 0066391 168.3215 191.9460 14.65073881332851
Epoch: 2025-12-11T04:53Z
TLE epoch observation values (Epoch: 2025-12-11T04:53:32.652Z)
Latitude
-0.00009°
Longitude
-100.41568°
Altitude
724.822 km
Speed
7.469 km/s
True Right ascension
03h 32m 32s
True Declination
0° 00' 00"
Sunlit
Object was in full shadow at epoch
Visualization orbit readout
Latitude
Unknown
Longitude
Unknown
Altitude
Unknown
Speed
Unknown
Apparent Right ascension
Unknown
Apparent Declination
Unknown
Sunlit
N/A
Visualization observer readout
Local Sidereal Time
14:36:42
Azimuth
Unknown
Elevation
Unknown
Doppler factor
Unknown
Orbital elements
Apogee altitude
722.015 km
Perigee altitude
628.359 km
Semi-major axis
7,053.324 km
Eccentricity
0.00664
Inclination
66.6961°
RAAN
53.1336°
Arg. of periapsis
168.3215°
True anomaly
191.78979°
Mean anomaly
191.946°
Eccentric anomaly
191.86777°
Mean motion
3.66397 °/min
Orbital period
98.25 mins
BSTAR
0.00097311
Loading maneuver chart data...
Computing Atmospheric mass density...

Documentation

Showing up to 5 results
|